Location: *
(55.5817°S, 142.4781°W)
Time: 07:00:20
(UTC+00:00)

Meteor 1-21 Rocket - Pass Details

Date: 29 April 2025
Orbit: 832 x 906 km, 81.2° (Epoch: 23 May)

Event Time Altitude Azimuth Distance (km) Brightness Sun altitude
Rises 15:05:29 0° 195° (SSW) 3,456 7.2 -15.1°
Reaches altitude 10° 15:07:57 10° 192° (SSW) 2,506 6.5 -14.8°
Maximum altitude 15:13:38 72° 107° (ESE) 897 4.5 -14.0°
Drops below altitude 10° 15:19:11 10° 22° (NNE) 2,458 7.0 -13.2°
Sets 15:21:35 0° 19° (NNE) 3,384 7.7 -12.9°
